Terug naar catalogus

STARLINK-34629

ActiefCommunicatieVLEO
NORAD 64790·PAYLOAD·🇺🇸 United States

Gelanceerd Jul 16, 2025 vanaf Vandenberg Space Force Base

Loading…

Volgende Passages (komende 24 uur)

TLE

VersSource: CelesTrak SupGP

Epoch: Sep 14, 2026, 22:38 UTC

1 64790C 25150A   26257.94354167 -.00048067  00000+0 -40225-2 0  2578
2 64790  70.0028  17.1711 0002939 271.9138 246.4055 14.98410077    15

Volg STARLINK-34629 in realtime met AllMySat

Download on the App Store